1298592030464,3.18223
1298592090464,3.13149
1298592150464,3.14501
1298592210464,3.14652
1298592270464,3.14673
1298592330464,3.14739
1298592390464,3.13793
1298592450464,3.17434
1298592510464,3.13686
1298592570464,3.16668
1298592630464,3.13930
1298592690464,3.16297
1298592750464,3.14880
1298592810464,3.13852
1298592870464,3.15604
1298592930464,3.13657
1298592990464,3.12040
1298593050464,3.10031
1298593110464,3.16547
1298593170464,3.15870
1298593230464,3.15288
1298593290464,3.13505
1298593350464,3.15073
1298593410464,3.15754
1298593470464,3.17767
1298593530464,3.15256
1298593590464,3.13636
1298593650464,3.12674
1298593710464,3.15634
1298593770464,3.14015
1298593830464,3.15395
1298593890464,3.13278
1298593950464,3.15255
1298594010464,3.16727
1298594070464,3.16082
1298594130464,3.13120
1298594190464,3.13729
1298594250464,3.13705
1298594310464,3.13950
1298594370464,3.13206
1298594430464,3.11118
1298594490464,3.13175
1298594550464,3.13556
1298594610464,3.15907
1298594670464,3.16399
1298594730464,3.17447
1298594790464,3.17388
1298594850464,3.17146
1298594910464,3.17581
1298594970464,3.14863
1298595030464,3.18102
1298595090464,3.15734
1298595150464,3.13815
1298595210464,3.14118
1298595270464,3.17496
1298595330464,3.17966
1298595390464,3.17832
1298595450464,3.12760
1298595510464,3.13234
1298595570464,3.13351
1298595630474,3.14600
1298595690474,3.14408
1298595750474,3.16380
1298595810474,3.10669
1298595870474,3.16248
1298595930474,3.15198
1298595990474,3.14159
1298596050474,3.15563
1298596110474,3.12599
1298596170474,3.14406
1298596230474,3.15725
1298596290474,3.12287
1298596350474,3.13858
1298596410474,3.17039
1298596470474,3.15262
1298596530474,3.13245
1298596590474,3.12105
1298596650474,3.12021
1298596710474,3.13208
1298596770474,3.15932
1298596830474,3.14315
1298596890474,3.11487
1298596950474,3.15376
1298597010474,3.12446
1298597070474,3.13038
1298597130474,3.11721
1298597190474,3.15023
1298597250474,3.14568
1298597310474,3.11949
1298597370474,3.13899
1298597430474,3.14183
1298597490474,3.11636
1298597550474,3.12700
1298597610474,3.13240
1298597670474,3.10509
1298597730474,3.13646
1298597790474,3.13810
1298597850474,3.11643
1298597910474,3.15053
1298597970474,3.13808
1298598030474,3.15820
1298598090474,3.16580
1298598150474,3.14615
1298598210474,3.14378
1298598270474,3.15018
1298598330474,3.16652
1298598390474,3.17341
1298598450474,3.12697
1298598510474,3.12606
1298598570474,3.09747
1298598630474,3.14813
1298598690474,3.12403
1298598750474,3.13143
1298598810474,3.12923
1298598870474,3.10889
1298598930474,3.12822
1298598990474,3.15066
1298599050474,3.14962
1298599110474,3.10973
1298599170474,3.11530
1298599230485,3.12560
1298599290485,3.12761
1298599350485,3.12582
1298599410485,3.11897
1298599470485,3.11629
1298599530485,3.11507
1298599590485,3.11695
1298599650485,3.12735
1298599710485,3.12120
1298599770485,3.14910
1298599830485,3.16580
1298599890485,3.13167
1298599950485,3.17455
1298600010485,3.13319
1298600070485,3.13442
1298600130485,3.13955
1298600190485,3.11107
1298600250485,3.13556
1298600310485,3.15778
1298600370485,3.14295
1298600430485,3.13396
1298600490485,3.13750
1298600550485,3.18982
1298600610485,3.12619
1298600670485,3.16193
1298600730485,3.14254
1298600790485,3.14744
1298600850485,3.14285
1298600910485,3.15470
1298600970485,3.14856
1298601030485,3.12572
1298601090485,3.15090
1298601150485,3.12729
1298601210485,3.14483
1298601270485,3.15683
1298601330485,3.13762
1298601390485,3.13993
1298601450485,3.12242
1298601510485,3.14731
1298601570485,3.15479
1298601630485,3.14048
1298601690485,3.14983
1298601750485,3.12604
1298601810485,3.11112
1298601870485,3.10509
1298601930485,3.12990
1298601990485,3.12607
1298602050485,3.11788
1298602110485,3.14852
1298602170485,3.13236
1298602230485,3.14693
1298602290485,3.12256
1298602350485,3.13139
1298602410485,3.13955
1298602470485,3.11270
1298602530485,3.11478
1298602590485,3.10309
1298602650485,3.14182
1298602710485,3.13451
1298602770485,3.13795
1298602830496,3.13623
1298602890496,3.13686
1298602950496,3.14596
1298603010496,3.13373
1298603070496,3.11761
1298603130496,3.14147
1298603190496,3.13468
1298603250496,3.10537
1298603310496,3.14622
1298603370496,3.16268
1298603430496,3.11843
1298603490496,3.15087
1298603550496,3.16962
1298603610496,3.12288
1298603670496,3.13543
1298603730496,3.14933
1298603790496,3.14222
1298603850496,3.12364
1298603910496,3.14088
1298603970496,3.12270
1298604030496,3.13922
1298604090496,3.13410
1298604150496,3.13650
1298604210496,3.16401
1298604270496,3.14908
1298604330496,3.16186
1298604390496,3.18444
1298604450496,3.15725
1298604510496,3.14069
1298604570496,3.13502
1298604630496,3.16715
1298604690496,3.15354
1298604750496,3.15696
1298604810496,3.14665
1298604870496,3.14086
1298604930496,3.12904
1298604990496,3.15271
1298605050496,3.16412
1298605110496,3.14042
1298605170496,3.15100
1298605230496,3.16284
1298605290496,3.13818
1298605350496,3.15557
1298605410496,3.15011
1298605470496,3.14155
1298605530496,3.13481
1298605590496,3.16051
1298605650496,3.13300
1298605710496,3.14253
1298605770496,3.12963
1298605830496,3.17008
1298605890496,3.13848
1298605950496,3.13246
1298606010496,3.12274
1298606070496,3.15237
1298606130496,3.15174
1298606190496,3.15931
1298606250496,3.14119
1298606310496,3.15712
1298606370496,3.11990
1298606430508,3.13714
1298606490508,3.14147
1298606550508,3.16548
1298606610507,3.15371
1298606670507,3.13005
1298606730507,3.15186
1298606790507,3.16103
1298606850507,3.15160
1298606910507,3.15165
1298606970507,3.18499
1298607030507,3.16278
1298607090507,3.15263
1298607150508,3.11820
1298607210508,3.14196
1298607270507,3.14505
1298607330507,3.14871
1298607390507,3.13644
1298607450508,3.17230
1298607510508,3.17309
1298607570508,3.13588
1298607630508,3.15437
1298607690508,3.15566
1298607750508,3.16008
1298607810508,3.17241
1298607870508,3.15113
1298607930507,3.13046
1298607990507,3.15082
1298608050507,3.13839
1298608110507,3.12928
1298608170507,3.12507
1298608230507,3.16337
1298608290507,3.14956
1298608350507,3.11852
1298608410507,3.10163
1298608470508,3.14229
1298608530508,3.14843
1298608590508,3.14479
1298608650507,3.12523
1298608710507,3.17136
1298608770507,3.14634
1298608830508,3.14046
1298608890508,3.14034
1298608950508,3.13117
1298609010508,3.12708
1298609070508,3.16258
1298609130508,3.14464
1298609190508,3.14860
1298609250508,3.14487
1298609310507,3.14955
1298609370507,3.13752
1298609430507,3.16124
1298609490507,3.14962
1298609550507,3.12462
1298609610507,3.14541
1298609670507,3.13270
1298609730507,3.14061
1298609790507,3.15293
1298609850508,3.12862
1298609910508,3.16974
1298609970507,3.15082
1298610030519,3.14664
1298610090519,3.15307
1298610150519,3.14512
1298610210519,3.14039
1298610270519,3.16465
1298610330519,3.14882
1298610390519,3.16899
1298610450519,3.13528
1298610510519,3.17892
1298610570519,3.16747
1298610630519,3.15543
1298610690519,3.16551
1298610750519,3.40749
1298610810519,3.22238
1298610870519,3.19809
1298610930519,3.19752
1298610990519,3.19382
1298611050519,3.24688
1298611110519,3.23509
1298611170519,3.28555
1298611230519,3.26303
1298611290519,3.23610
1298611350519,3.23912
1298611410519,3.16242
1298611470519,3.18405
1298611530519,3.18628
1298611590519,3.16381
1298611650519,3.17952
1298611710519,3.15414
1298611770519,3.17012
1298611830519,3.14501
1298611890519,3.14923
1298611950519,3.15210
1298612010519,3.14493
1298612070519,3.17665
1298612130519,3.14741
1298612190519,3.17253
1298612250519,3.16599
1298612310519,3.18335
1298612370519,3.18425
1298612430519,3.17993
1298612490519,3.18917
1298612550519,3.19053
1298612610519,3.20368
1298612670519,3.23699
1298612730519,3.21128
1298612790519,3.19225
1298612850519,3.17303
1298612910519,3.18253
1298612970519,3.14563
1298613030519,3.15899
1298613090519,3.16698
1298613150519,3.16410
1298613210519,3.18982
1298613270519,3.16118
1298613330519,3.19134
1298613390519,3.19183
1298613450519,3.19425
1298613510519,3.17340
1298613570519,3.13962
1298613630530,3.12914
1298613690530,3.20441
1298613750530,3.16832
1298613810530,3.16018
1298613870530,3.16525
1298613930530,3.16632
1298613990530,3.15164
1298614050530,3.15696
1298614110530,3.15131
1298614170530,3.20089
1298614230530,3.16683
1298614290530,3.17227
1298614350530,3.18549
1298614410530,3.15437
1298614470530,3.12318
1298614530530,3.15348
1298614590530,3.16835
1298614650530,3.14422
1298614710530,3.15935
1298614770530,3.14003
1298614830530,3.16458
1298614890530,3.17386
1298614950530,3.17178
1298615010530,3.17197
1298615070530,3.16890
1298615130530,3.16732
1298615190530,3.17825
1298615250530,3.15044
1298615310530,3.16327
1298615370530,3.15420
1298615430530,3.14360
1298615490530,3.15265
1298615550530,3.16520
1298615610530,3.15824
1298615670530,3.17773
1298615730530,3.15614
1298615790530,3.15516
1298615850530,3.15817
1298615910530,3.16248
1298615970530,3.19839
1298616030530,3.14017
1298616090530,3.17628
1298616150530,3.17942
1298616210530,3.16588
1298616270530,3.16127
1298616330530,3.15774
1298616390530,3.14280
1298616450530,3.17955
1298616510530,3.14135
1298616570530,3.16391
1298616630530,3.15008
1298616690530,3.17388
1298616750530,3.16628
1298616810530,3.15390
1298616870530,3.17934
1298616930530,3.17077
1298616990530,3.18437
1298617050530,3.20642
1298617110530,3.19428
1298617170530,3.19378
1298617230541,3.19274
1298617290541,3.18810
1298617350541,3.18375
1298617410541,3.16118
1298617470541,3.18211
1298617530541,3.18111
1298617590541,3.17885
1298617650541,3.20627
1298617710541,3.20453
1298617770541,3.18614
1298617830541,3.20563
1298617890541,3.21114
1298617950541,3.19380
1298618010541,3.15313
1298618070541,3.16352
1298618130541,3.18970
1298618190541,3.18961
1298618250541,3.18450
1298618310541,3.17067
1298618370541,3.19774
1298618430541,3.19634
1298618490541,3.21375
1298618550541,3.20516
1298618610541,3.21070
1298618670541,3.21543
1298618730541,3.19375
1298618790541,3.23534
1298618850541,3.19492
1298618910541,3.21463
1298618970541,3.23411
1298619030541,3.19611
1298619090541,3.20664
1298619150541,3.20087
1298619210541,3.21884
1298619270541,3.19610
1298619330541,3.21958
1298619390541,3.18338
1298619450541,3.22419
1298619510541,3.21484
1298619570541,3.22383
1298619630541,3.21932
1298619690541,3.23029
1298619750541,3.19651
1298619810541,3.21914
1298619870541,3.20197
1298619930541,3.18982
1298619990541,3.19874
1298620050541,3.21937
1298620110541,3.19872
1298620170541,3.19936
1298620230541,3.22124
1298620290541,3.17828
1298620350541,3.22310
1298620410541,3.18882
1298620470541,3.18523
1298620530541,3.20151
1298620590541,3.22546
1298620650541,3.19325
1298620710541,3.20306
1298620770541,3.21510
1298620830553,3.18958
1298620890553,3.20771
1298620950553,3.18400
1298621010553,3.17686
1298621070553,3.19510
1298621130553,3.20439
1298621190553,3.21267
1298621250553,3.22801
1298621310553,3.20050
1298621370553,3.17835
1298621430553,3.19263
1298621490553,3.21033
1298621550553,3.19320
1298621610553,3.19829
1298621670553,3.15588
1298621730553,3.17638
1298621790553,3.20304
1298621850553,3.19237
1298621910553,3.20460
1298621970553,3.16741
1298622030553,3.19033
1298622090553,3.19634
1298622150553,3.19767
1298622210553,3.20826
1298622270553,3.20004
1298622330553,3.19655
1298622390553,3.20039
1298622450553,3.19508
1298622510553,3.21462
1298622570553,3.23436
1298622630553,3.19705
1298622690553,3.20752
1298622750553,3.20241
1298622810553,3.22026
1298622870553,3.20410
1298622930553,3.15817
1298622990553,3.20254
1298623050553,3.20526
1298623110553,3.17886
1298623170553,3.18779
1298623230553,3.17271
1298623290553,3.18339
1298623350553,3.21331
1298623410553,3.18585
1298623470553,3.21518
1298623530553,3.19408
1298623590553,3.19814
1298623650553,3.20643
1298623710553,3.22583
1298623770553,3.20507
1298623830553,3.19843
1298623890553,3.20039
1298623950553,3.18605
1298624010553,3.19777
1298624070553,3.16136
1298624130553,3.20073
1298624190553,3.17976
1298624250553,3.19992
1298624310553,3.17905
1298624370553,3.21805
1298624430564,3.18999
1298624490564,3.19177
1298624550564,3.19082
1298624610564,3.16226
1298624670564,3.19033
1298624730564,3.18832
1298624790564,3.19288
1298624850564,3.16441
1298624910564,3.18208
1298624970564,3.18662
1298625030564,3.19473
1298625090564,3.20098
1298625630564,3.19214
1298625690564,3.20637
1298625750564,3.18223
1298625810564,3.18969
1298625870564,3.16972
1298625930564,3.20321
1298625990564,3.20693
1298626050564,3.19271
1298626110564,3.19663
1298626170564,3.20348
1298626230564,3.19895
1298626290564,3.18555
1298626350564,3.17314
1298626410564,3.20148
1298626470564,3.23628
1298626530564,3.19001
1298626590564,3.17888
1298626650564,3.18048
1298626710564,3.17326
1298626770564,3.19325
1298626830564,3.19118
1298626890564,3.15442
1298626950564,3.18883
1298627010564,3.19002
1298627070564,3.18401
1298627130564,3.21043
1298627190564,3.17915
1298627250564,3.18079
1298627310564,3.20052
1298627370564,3.20374
1298627430564,3.18886
1298627490564,3.19090
1298627550564,3.18642
1298627610564,3.18809
1298627670564,3.17584
1298627730564,3.16783
1298627790564,3.16649
1298627850564,3.17299
1298627910564,3.18664
1298627970564,3.16255
1298628030576,3.18543
1298628090576,3.18817
1298628150576,3.21126
1298628210576,3.19409
1298628270576,3.18885
1298628330576,3.19988
1298628390576,3.16842
1298628450576,3.18917
1298628510576,3.18948
1298628570576,3.17976
1298628630576,3.18918
1298628690576,3.18681
1298628750576,3.19341
1298628810576,3.20047
1298628870576,3.18940
1298628930576,3.19776
1298628990576,3.19146
1298629050576,3.16870
1298629110576,3.16163
1298629170576,3.17590
1298629230576,3.15256
1298629290576,3.17213
1298629350576,3.18763
1298629410576,3.17682
1298629470576,3.18574
1298629530576,3.16858
1298629590576,3.15108
1298629650576,3.17635
1298629710576,3.17578
1298629770576,3.18566
1298629830576,3.15457
1298629890576,3.16839
1298629950576,3.16272
1298630010576,3.17845
1298630070576,3.20417
1298630130576,3.22696
1298630190576,3.15346
1298630250576,3.17238
1298630310576,3.19199
1298630370576,3.16591
1298630430576,3.18134
1298630490576,3.22047
1298630550576,3.18061
1298630610576,3.18565
1298630670576,3.19154
1298630730576,3.20951
1298630790576,3.18347
1298630850576,3.19254
1298630910576,3.17704
1298630970576,3.22116
1298631030576,3.17338
1298631090576,3.15621
1298631150576,3.21757
1298631210576,3.19169
1298631270576,3.17685
1298631330576,3.23028
1298631390576,3.21020
1298631450576,3.19879
1298631510576,3.22755
1298631570576,3.24667
1298631630588,3.22927
1298631690588,3.22660
1298631750588,3.20363
1298631810588,3.23184
1298631870588,3.17257
1298631930588,3.21044
1298631990588,3.23405
1298632050588,3.19474
1298632110588,3.27906
1298632170588,3.19328
1298632230588,3.18073
1298632290588,3.21099
1298632350588,3.19782
1298632410588,3.17871
1298632470588,3.21837
1298632530588,3.19082
1298632590588,3.21852
1298632650588,3.20689
1298632710588,3.19331
1298632770588,3.20236
1298632830588,3.18433
1298632890588,3.20112
1298632950588,3.20484
1298633010588,3.18716
1298633070588,3.21619
1298633130588,3.19755
1298633190588,3.20846
1298633250588,3.20631
1298633310588,3.19160
1298633370588,3.20967
1298633430588,3.18133
1298633490588,3.20424
1298633550588,3.19477
1298633610588,3.19023
1298633670588,3.18850
1298633730588,3.20381
1298633790588,3.19642
1298633850588,3.22702
1298633910588,3.22545
1298633970588,3.18905
1298634030588,3.24726
1298634090588,3.20594
1298634150588,3.20534
1298634210588,3.19666
1298634270588,3.22116
1298634330588,3.20469
1298634390588,3.20694
1298634450588,3.21289
1298634510588,3.19461
1298634570588,3.23411
1298634630588,3.19878
1298634690588,3.22106
1298634750588,3.21738
1298634810588,3.19087
1298634870588,3.20598
1298634930588,3.19481
1298634990588,3.21935
1298635050588,3.23442
1298635110588,3.18483
1298635170588,3.21666
1298635230599,3.19388
1298635290599,3.20298
1298635350599,3.18644
1298635410599,3.17877
1298635470599,3.19795
1298635530599,3.19542
1298635590599,3.21785
1298635650599,3.21803
1298635710599,3.18549
1298635770599,3.22976
1298635830599,3.18844
1298635890599,3.22053
1298635950599,3.22760
1298636010599,3.18486
1298636070599,3.18752
1298636130599,3.17876
1298636190599,3.17903
1298636250599,3.19027
1298636310599,3.19601
1298636370599,3.20176
1298636430599,3.19672
1298636490599,3.18126
1298636550599,3.19200
1298636610599,3.18684
1298636670599,3.22369
1298636730599,3.19127
1298636790599,3.20978
1298636850599,3.20268
1298636910599,3.21696
1298636970599,3.21384
1298637030599,3.20775
1298637090599,3.18847
1298637150599,3.20443
1298637210599,3.18240
1298637270599,3.17608
1298637330599,3.19125
1298637390599,3.17619
1298637450599,3.21051
1298637510599,3.19020
1298637570599,3.20055
1298637630599,3.18828
1298637690599,3.20750
1298637750599,3.16651
1298637810599,3.17020
1298637870599,3.21058
1298637930599,3.18671
1298637990599,3.18685
1298638050599,3.17708
1298638110599,3.20392
1298638170599,3.19698
1298638230599,3.18037
1298638290599,3.17496
1298638350599,3.17962
1298638410599,3.21304
1298638470599,3.20058
1298638530599,3.16450
1298638590599,3.20113
1298638650599,3.23074
1298638710599,3.18454
1298638770599,3.21925
1298638830611,3.19236
1298638890611,3.18408
1298638950611,3.20775
1298639010611,3.18576
1298639070611,3.17834
1298639130611,3.18016
1298639190611,3.17012
1298639250611,3.16462
1298639310611,3.18764
1298639370611,3.17260
1298639430611,3.17460
1298639490611,3.20893
1298639550611,3.19108
1298639610611,3.16865
1298639670611,3.18647
1298639730611,3.20251
1298639790611,3.18136
1298639850611,3.17880
1298639910611,3.17332
1298639970611,3.16163
1298640030611,3.17586
1298640090611,3.20442
1298640150611,3.19158
1298640210611,3.20727
1298640270611,3.17032
1298640330611,3.17500
1298640390611,3.19911
1298640450611,3.16467
1298640510611,3.14922
1298640570611,3.18171
1298640630611,3.17280
1298640690611,3.17742
1298640750611,3.18166
1298640810611,3.15805
1298640870611,3.18590
1298640930611,3.16619
1298640990611,3.20476
1298641050611,3.19377
1298641110611,3.20317
1298641170611,3.19573
1298641230611,3.19047
1298641290611,3.19620
1298641350611,3.18154
1298641410611,3.19418
1298641470611,3.17074
1298641530611,3.16993
1298641590611,3.17000
1298641650611,3.18666
1298641710611,3.18218
1298641770611,3.17274
1298641830611,3.19214
1298641890611,3.17902
1298641950611,3.16445
1298642010611,3.20071
1298642070611,3.15579
1298642130611,3.15487
1298642190611,3.15837
1298642250611,3.19493
1298642310611,3.19123
1298642370611,3.17484
1298642430638,3.19079
1298642490638,3.18482
1298642550638,3.21682
1298642610638,3.19557
1298642670638,3.22675
1298642730638,3.18217
1298642790638,3.18776
1298642850638,3.17422
1298642910638,3.17836
1298642970638,3.17558
1298643030638,3.17204
1298643090638,3.17859
1298643150638,3.18836
1298643210638,3.18182
1298643270638,3.19691
1298643330638,3.21164
1298643390638,3.16797
1298643450638,3.19118
1298643510638,3.18610
1298643570638,3.17742
1298643630638,3.20574
1298643690638,3.20423
1298643750638,3.16029
1298643810638,3.18565
1298643870638,3.18702
1298643930638,3.21885
1298643990638,3.17834
1298644050638,3.16499
1298644110638,3.20756
1298644170638,3.19301
1298644230638,3.17453
1298644290638,3.21848
1298644350638,3.21584
1298644410638,3.21019
1298644470638,3.18427
1298644530638,3.19166
1298644590638,3.20105
1298644650638,3.18825
1298644710638,3.19651
1298644770638,3.16975
1298644830638,3.22441
1298644890638,3.17935
1298644950638,3.19012
1298645010638,3.19252
1298645070638,3.19312
1298645130638,3.22864
1298645190638,3.20929
1298645250638,3.19242
1298645310638,3.21719
1298645370638,3.20069
1298645430638,3.16523
1298645490638,3.18133
1298645550638,3.21515
1298645610638,3.19820
1298645670638,3.20655
1298645730638,3.20326
1298645790638,3.21348
1298645850638,3.22379
1298645910638,3.20891
1298645970638,3.20772
1298646030649,3.16977
1298646090649,3.21656
1298646150649,3.19647
1298646210649,3.20391
1298646270649,3.18251
1298646330649,3.19631
1298646390649,3.21325
1298646450649,3.21934
1298646510649,3.18007
1298646570649,3.21941
1298646630649,3.19274
1298646690649,3.21805
1298646750649,3.20179
1298646810649,3.19147
1298646870649,3.17671
1298646930649,3.17095
1298646990649,3.19488
1298647050649,3.16978
1298647110649,3.19781
1298647170649,3.21396
1298647230649,3.18456
1298647290649,3.18723
1298647350649,3.20874
1298647410649,3.22499
1298647470649,3.20698
1298647530649,3.19347
1298647590649,3.19413
1298647650649,3.20005
1298647710649,3.18412
1298647770649,3.18862
1298647830649,3.19306
1298647890649,3.21345
1298647950649,3.17491
1298648010649,3.17823
1298648070649,3.20815
1298648130649,3.17477
1298648190649,3.19300
1298648250649,3.20773
1298648310649,3.17250
1298648370649,3.16833
1298648430649,3.15399
1298648490649,3.18745
1298648550649,3.18382
1298648610649,3.20952
1298648670649,3.20669
1298648730649,3.19288
1298648790649,3.20507
1298648850649,3.16535
1298648910649,3.18196
1298648970649,3.17993
1298649030649,3.15053
1298649090649,3.16813
1298649150649,3.19697
1298649210649,3.19115
1298649270649,3.19806
1298649330649,3.18615
1298649390649,3.22271
1298649450649,3.17403
1298649510649,3.18968
1298649570649,3.16271
1298649630660,3.19276
1298649690660,3.17664
1298649750660,3.19572
1298649810660,3.16612
1298649870660,3.20975
1298649930660,3.21975
1298649990660,3.19108
1298650050660,3.18293
1298650110660,3.25311
1298650170660,3.17779
1298650230660,3.19116
1298650290660,3.18150
1298650350660,3.18359
1298650410660,3.19765
1298650470660,3.20086
1298650530660,3.18519
1298650590660,3.19018
1298650650660,3.19980
1298650710660,3.20818
1298650770660,3.18425
1298650830660,3.16675
1298650890660,3.20637
1298650950660,3.19943
1298651010660,3.19086
1298651070660,3.19544
1298651130660,3.20728
1298651190660,3.18831
1298651250660,3.20232
1298651310660,3.18124
1298651370660,3.20062
1298651430660,3.17155
1298651490660,3.20441
1298651550660,3.16737
1298651610660,3.16891
1298651670660,3.21670
1298651730660,3.19511
1298651790660,3.20066
1298651850660,3.19512
1298651910660,3.19328
1298651970660,3.21029
1298652030660,3.17369
1298652090660,3.21355
1298652150660,3.20575
1298652210660,3.21702
1298652270660,3.20967
1298652330660,3.21061
1298652390660,3.18226
1298652450660,3.20702
1298652510660,3.19506
1298652570660,3.16785
1298652630660,3.18895
1298652690660,3.19060
1298652750660,3.19275
1298652810660,3.18384
1298652870660,3.17863
1298652930660,3.18310
1298652990660,3.21242
1298653050660,3.18968
1298653110660,3.21209
1298653170660,3.23958
1298653230671,3.17568
1298653290671,3.21178
1298653350671,3.19184
1298653410671,3.13726
1298653470671,3.20139
1298653530671,3.20367
1298653590671,3.18069
1298653650671,3.20379
1298653710671,3.19373
1298653770671,3.20086
1298653830671,3.17943
1298653890671,3.18408
1298653950671,3.19564
1298654010671,3.18461
1298654070671,3.20098
1298654130671,3.20137
1298654190671,3.19363
1298654250671,3.17570
1298654310671,3.19209
1298654370671,3.18701
1298654430671,3.22404
1298654490671,3.20454
1298654550671,3.22929
1298654610671,3.25575
1298654670671,3.28699
1298654730671,3.28858
1298654790671,3.31867
1298654850671,3.31485
1298654910671,3.33311
1298654970671,3.34076
1298655030671,3.32131
1298655090671,3.27827
1298655150671,3.27513
1298655210671,3.26050
1298655270671,3.25992
1298655330671,3.24842
1298655390671,3.23906
1298655450671,3.25159
1298655510671,3.21359
1298655570671,3.26690
1298655630671,3.24416
1298655690671,3.26561
1298655750671,3.20405
1298655810671,3.21834
1298655870671,3.23905
1298655930671,3.21402
1298655990671,3.22270
1298656050671,3.28432
1298656110671,3.19309
1298656170671,3.37072
1298656230671,3.20970
1298656290671,3.22178
1298656350671,3.23655
1298656410671,3.19219
1298656470671,3.20656
1298656530671,3.18960
1298656590671,3.20415
1298656650671,3.21096
1298656710671,3.22851
1298656770671,3.21264
1298656830682,3.20821
1298656890682,3.19971
1298656950682,3.22155
1298657010682,3.21006
1298657070682,3.24597
1298657130682,3.20325
1298657190682,3.18875
1298657250682,3.22109
1298657310682,3.21233
1298657370682,3.20897
1298657430682,3.22939
1298657490682,3.21150
1298657550682,3.20659
1298657610682,3.21468
1298657670682,3.18558
1298657730682,3.20979
1298657790682,3.17730
1298657850682,3.19953